LA4GY-1 Weather Reports


Display with metric or nautical units.
time (UTC)temp
F
wind
direction
speed
MPH
gust
MPH
rain 1hr
in
rain 24hr
in
rain mn
in
humidity
%
barometer
mb
20260509182004 43 192 0.0 0.0 0.07 0.08 0.08 87 1014.2
20260509181005 45 285 0.0 0.0 0.06 0.07 0.07 84 1014.1
20260509180005 47 263 0.0 0.0 0.07 0.07 0.07 88 1014.1
20260509174005 47 335 0.0 0.0 0.03 0.03 0.03 86 1013.9
20260509173005 47 333 0.0 0.0 0.02 0.02 0.02 86 1013.9
20260509172005 48 336 0.0 0.0 0.01 0.01 0.01 85 1013.9
20260509170005 48 104 0.0 0.0 0.00 0.00 0.00 85 1014.0
20260509165006 48 104 0.0 0.0 0.00 0.00 0.00 85 1014.2
20260509163006 49 104 0.0 0.0 0.00 0.00 0.00 83 1014.4
20260509162006 49 104 0.0 0.0 0.00 0.00 0.00 82 1014.5
20260509161006 49 104 0.0 0.0 0.00 0.00 0.00 81 1014.7
20260509160006 49 104 0.0 0.0 0.00 0.00 0.00 81 1014.8
20260509155005 49 96 0.0 0.0 0.00 0.00 0.00 80 1014.9
20260509154006 49 89 0.0 0.0 0.00 0.00 0.00 80 1015.0
20260509152006 49 87 0.0 0.0 0.00 0.00 0.00 79 1015.2
20260509151006 49 96 0.0 0.0 0.00 0.00 0.00 77 1015.4
20260509150005 49 111 0.0 0.0 0.00 0.00 0.00 78 1015.5
20260509145005 50 77 0.0 0.0 0.00 0.00 0.00 76 1015.8
20260509144005 50 131 0.0 0.0 0.00 0.00 0.00 77 1015.9
20260509141006 49 218 0.0 0.0 0.00 0.00 0.00 79 1016.2
20260509135005 49 100 0.0 0.0 0.00 0.00 0.00 80 1016.5
20260509134005 49 100 0.0 0.0 0.00 0.00 0.00 81 1016.5
20260509133006 49 231 0.0 0.0 0.00 0.00 0.00 82 1016.8
20260509131005 48 95 0.0 0.0 0.00 0.00 0.00 80 1016.9
20260509130005 49 102 0.0 0.0 0.00 0.00 0.00 79 1017.1
20260509123005 49 274 0.0 0.0 0.00 0.00 0.00 79 1017.3
20260509122005 49 274 0.0 0.0 0.00 0.00 0.00 79 1017.4
20260509121005 50 274 0.0 0.0 0.00 0.00 0.00 75 1017.5
20260509120005 51 275 0.0 0.0 0.00 0.00 0.00 73 1017.5
20260509115006 51 274 0.0 0.0 0.00 0.00 0.00 73 1017.6
20260509114005 51 275 0.0 0.0 0.00 0.00 0.00 73 1017.6
20260509112005 51 303 0.0 0.0 0.00 0.00 0.00 70 1017.6
20260509111006 51 255 0.0 0.0 0.00 0.00 0.00 73 1017.6
20260509110005 51 257 0.0 0.0 0.00 0.00 0.00 70 1017.6
20260509105005 51 273 0.0 0.0 0.00 0.00 0.00 68 1017.6
20260509104005 51 222 0.0 0.0 0.00 0.00 0.00 69 1017.5
20260509103006 50 221 0.0 0.0 0.00 0.00 0.00 69 1017.4
20260509102006 50 223 0.0 0.0 0.00 0.00 0.00 70 1017.4
20260509101005 50 188 0.0 0.0 0.00 0.00 0.00 69 1017.4
20260509100006 50 193 0.0 0.0 0.00 0.00 0.00 67 1017.3
20260509095006 49 149 0.0 0.0 0.00 0.00 0.00 67 1017.2
20260509094006 49 330 0.0 0.0 0.00 0.00 0.00 64 1017.3
20260509093005 49 343 0.0 0.0 0.00 0.00 0.00 64 1017.3
20260509092006 49 343 0.0 0.0 0.00 0.00 0.00 66 1017.4
20260509091005 49 343 0.0 0.0 0.00 0.00 0.00 68 1017.4
20260509090006 49 343 0.0 0.0 0.00 0.00 0.00 68 1017.4
20260509085005 49 343 0.0 0.0 0.00 0.00 0.00 65 1017.3
20260509084005 49 343 0.0 0.0 0.00 0.00 0.00 65 1017.3
20260509083006 48 344 0.0 0.0 0.00 0.00 0.00 66 1017.3
20260509082005 47 343 0.0 0.0 0.00 0.00 0.00 66 1017.3
20260509081006 47 343 0.0 0.0 0.00 0.00 0.00 66 1017.3
20260509080005 47 343 0.0 0.0 0.00 0.00 0.00 68 1017.3
20260509074005 47 343 0.0 0.0 0.00 0.00 0.00 70 1017.4
20260509073005 46 343 0.0 0.0 0.00 0.00 0.00 72 1017.5
20260509072006 46 343 0.0 0.0 0.00 0.00 0.00 73 1017.6
20260509071006 46 343 0.0 0.0 0.00 0.00 0.00 73 1017.6
20260509070005 46 343 0.0 0.0 0.00 0.00 0.00 74 1017.6
20260509065005 46 342 0.0 0.0 0.00 0.00 0.00 73 1017.6
20260509064005 46 343 0.0 0.0 0.00 0.00 0.00 70 1017.6
20260509063005 45 343 0.0 0.0 0.00 0.00 0.00 72 1017.7
20260509062005 45 343 0.0 0.0 0.00 0.00 0.00 72 1017.7
20260509061005 45 342 0.0 0.0 0.00 0.00 0.00 72 1017.7
20260509060005 44 342 0.0 0.0 0.00 0.00 0.00 73 1017.7
20260509055005 44 342 0.0 0.0 0.00 0.00 0.00 76 1017.8
20260509054005 44 342 0.0 0.0 0.00 0.00 0.00 75 1017.9
20260509052006 44 342 0.0 0.0 0.00 0.00 0.00 76 1018.0
20260509051005 44 342 0.0 0.0 0.00 0.00 0.00 74 1018.0
20260509050005 43 342 0.0 0.0 0.00 0.00 0.00 75 1018.1
20260509044005 42 342 0.0 0.0 0.00 0.00 0.00 76 1018.2
20260509042005 41 342 0.0 0.0 0.00 0.00 0.00 78 1018.2
20260509035006 40 342 0.0 0.0 0.00 0.00 0.00 77 1018.1
20260509033005 41 342 0.0 0.0 0.00 0.00 0.00 75 1018.2
20260509032005 41 343 0.0 0.0 0.00 0.00 0.00 75 1018.3
20260509031005 41 343 0.0 0.0 0.00 0.00 0.00 74 1018.3
20260509030005 41 343 0.0 0.0 0.00 0.00 0.00 75 1018.4
20260509025005 40 344 0.0 0.0 0.00 0.00 0.00 74 1018.4
20260509024005 40 353 0.0 0.0 0.00 0.00 0.00 75 1018.4
20260509023005 40 335 0.0 0.0 0.00 0.00 0.00 75 1018.4
20260509022004 40 335 0.0 0.0 0.00 0.00 0.00 75 1018.2
20260509021006 40 335 0.0 0.0 0.00 0.00 0.00 74 1018.2
20260509015005 40 335 0.0 0.0 0.00 0.00 0.00 74 1018.3
20260509014005 40 346 0.0 0.0 0.00 0.00 0.00 74 1018.3
20260509013005 40 346 0.0 0.0 0.00 0.00 0.00 74 1018.4
20260509012006 41 346 0.0 0.0 0.00 0.00 0.00 74 1018.4
20260509011005 41 346 0.0 0.0 0.00 0.00 0.00 73 1018.5
20260509010005 41 346 0.0 0.0 0.00 0.00 0.00 73 1018.6
20260509005004 42 331 0.0 0.0 0.00 0.00 0.00 72 1018.6
20260509004004 42 337 0.0 0.0 0.00 0.00 0.00 71 1018.7
20260509002005 43 337 0.0 0.0 0.00 0.00 0.00 71 1018.7
20260509001005 43 342 0.0 0.0 0.00 0.00 0.00 68 1018.6
20260509000005 43 324 0.0 0.0 0.00 0.00 0.00 68 1018.5
20260508235004 44 325 0.0 0.0 0.00 0.00 0.00 67 1018.5
20260508233005 44 323 0.0 0.0 0.00 0.00 0.00 67 1018.6
20260508232005 43 337 0.0 0.0 0.00 0.00 0.00 68 1018.7
20260508231004 43 348 0.0 0.0 0.00 0.00 0.00 69 1018.8
20260508230005 43 334 0.0 0.0 0.00 0.00 0.00 69 1018.8
20260508225005 43 323 0.0 0.0 0.00 0.00 0.00 68 1018.9
20260508224005 44 346 0.0 0.0 0.00 0.00 0.00 68 1019.0
20260508223005 44 355 0.0 0.0 0.00 0.00 0.00 68 1019.2
20260508222005 44 331 0.0 0.0 0.00 0.00 0.00 67 1019.2
20260508221005 44 358 0.0 0.0 0.00 0.00 0.00 68 1019.3
20260508220005 44 340 0.0 0.0 0.00 0.00 0.00 67 1019.3
20260508215005 44 344 0.0 0.0 0.00 0.00 0.00 66 1019.4
20260508213005 45 340 0.0 0.0 0.00 0.00 0.00 64 1019.4
20260508212004 45 311 0.0 0.0 0.00 0.00 0.00 64 1019.6
20260508210004 45 346 0.0 0.0 0.00 0.00 0.00 61 1019.5
20260508205005 46 330 0.0 0.0 0.00 0.00 0.00 61 1019.6
20260508204005 46 336 0.0 0.0 0.00 0.00 0.00 62 1019.6
20260508203004 46 15 0.0 0.0 0.00 0.00 0.00 61 1019.7
20260508202005 46 0 0.0 0.0 0.00 0.00 0.00 60 1019.7
20260508201005 47 18 0.0 0.0 0.00 0.00 0.00 60 1019.9
20260508200004 47 26 0.0 0.0 0.00 0.00 0.00 60 1019.8
20260508195005 47 355 0.0 0.0 0.00 0.00 0.00 59 1019.8
20260508194005 48 49 0.0 0.0 0.00 0.01 0.00 59 1019.9
20260508193005 48 290 0.0 0.0 0.00 0.01 0.00 58 1019.9
20260508192005 49 318 0.0 0.0 0.00 0.01 0.00 57 1019.9
20260508191006 49 324 0.0 0.0 0.00 0.01 0.00 57 1020.0
20260508190005 50 342 0.0 0.0 0.00 0.01 0.00 54 1020.0
20260508185005 50 43 0.0 0.0 0.00 0.02 0.00 53 1020.1